Time,TemperatureF,DewpointF,PressureIn,WindDirection,WindDirectionDegrees,WindSpeedMPH,WindSpeedGustMPH,Humidity,HourlyPrecipIn,Conditions,Clouds,dailyrainin,SolarRadiationWatts/m^2,SoftwareType,DateUTC
2013-02-10 00:01:00,26.0,25.0,-100.00,ESE,111,4.0,7.0,96,0.00,,,0.00,0.000000,,2013-02-10 06:01:00,
2013-02-10 00:21:00,26.0,25.0,-100.00,ESE,111,4.0,7.0,96,0.00,,,0.00,0.000000,,2013-02-10 06:21:00,
2013-02-10 00:32:00,26.0,25.0,-100.00,ESE,111,4.0,7.0,96,0.00,,,0.00,0.000000,,2013-02-10 06:32:00,
2013-02-10 00:42:00,26.0,25.0,-100.00,ESE,111,4.0,7.0,96,0.00,,,0.00,0.000000,,2013-02-10 06:42:00,
2013-02-10 00:52:00,26.0,25.0,-100.00,ESE,111,4.0,7.0,96,0.00,,,0.00,0.000000,,2013-02-10 06:52:00,
2013-02-10 01:01:00,26.0,25.0,-100.00,East,101,4.0,6.0,96,0.00,,,0.00,0.000000,,2013-02-10 07:01:00,
2013-02-10 01:32:00,26.0,25.0,-100.00,East,101,4.0,6.0,96,0.00,,,0.00,0.000000,,2013-02-10 07:32:00,
2013-02-10 01:42:00,26.0,25.0,-100.00,East,101,4.0,6.0,96,0.00,,,0.00,0.000000,,2013-02-10 07:42:00,
2013-02-10 01:52:00,26.0,25.0,-100.00,East,101,4.0,6.0,96,0.00,,,0.00,0.000000,,2013-02-10 07:52:00,
2013-02-10 02:01:00,26.0,25.0,-100.00,ESE,111,5.0,7.0,97,0.00,,,0.00,0.000000,,2013-02-10 08:01:00,
2013-02-10 02:32:00,26.0,25.0,-100.00,ESE,111,5.0,7.0,97,0.00,,,0.00,0.000000,,2013-02-10 08:32:00,
2013-02-10 02:43:00,26.0,25.0,-100.00,ESE,111,5.0,7.0,97,0.00,,,0.00,0.000000,,2013-02-10 08:43:00,
2013-02-10 02:52:00,26.0,25.0,-100.00,ESE,111,5.0,7.0,97,0.00,,,0.00,0.000000,,2013-02-10 08:52:00,
2013-02-10 03:01:00,26.0,25.0,-100.00,ESE,114,7.0,10.0,96,0.00,,,0.00,0.000000,,2013-02-10 09:01:00,
2013-02-10 03:21:00,26.0,25.0,-100.00,ESE,114,7.0,10.0,96,0.00,,,0.00,0.000000,,2013-02-10 09:21:00,
2013-02-10 03:32:00,26.0,25.0,-100.00,ESE,114,7.0,10.0,96,0.00,,,0.00,0.000000,,2013-02-10 09:32:00,
2013-02-10 03:42:00,26.0,25.0,-100.00,ESE,114,7.0,10.0,96,0.00,,,0.00,0.000000,,2013-02-10 09:42:00,
2013-02-10 03:52:00,26.0,25.0,-100.00,ESE,114,7.0,10.0,96,0.00,,,0.00,0.000000,,2013-02-10 09:52:00,
2013-02-10 04:01:00,26.0,25.0,-100.00,ESE,112,7.0,11.0,97,0.00,,,0.00,0.000000,,2013-02-10 10:01:00,
2013-02-10 04:32:00,26.0,25.0,-100.00,ESE,112,7.0,11.0,97,0.00,,,0.00,0.000000,,2013-02-10 10:32:00,
2013-02-10 04:42:00,26.0,25.0,-100.00,ESE,112,7.0,11.0,97,0.00,,,0.00,0.000000,,2013-02-10 10:42:00,
2013-02-10 04:52:00,26.0,25.0,-100.00,ESE,112,7.0,11.0,97,0.00,,,0.00,0.000000,,2013-02-10 10:52:00,
2013-02-10 05:01:00,26.0,25.0,-100.00,East,84,5.0,11.0,96,0.00,,,0.00,0.000000,,2013-02-10 11:01:00,
2013-02-10 05:22:00,26.0,25.0,-100.00,East,84,5.0,11.0,96,0.00,,,0.00,0.000000,,2013-02-10 11:22:00,
2013-02-10 05:32:00,26.0,25.0,-100.00,East,84,5.0,11.0,96,0.00,,,0.00,0.000000,,2013-02-10 11:32:00,
2013-02-10 05:42:00,26.0,25.0,-100.00,East,84,5.0,11.0,96,0.00,,,0.00,0.000000,,2013-02-10 11:42:00,
2013-02-10 05:52:00,26.0,25.0,-100.00,East,84,5.0,11.0,96,0.00,,,0.00,0.000000,,2013-02-10 11:52:00,
2013-02-10 09:01:00,26.0,25.0,-100.00,ENE,66,7.0,11.0,95,-99.99,,,0.04,17.000000,,2013-02-10 15:01:00,
2013-02-10 09:32:00,26.0,25.0,-100.00,ENE,66,7.0,11.0,95,-99.99,,,0.04,17.000000,,2013-02-10 15:32:00,
2013-02-10 09:42:00,26.0,25.0,-100.00,ENE,66,7.0,11.0,95,-99.99,,,0.04,17.000000,,2013-02-10 15:42:00,
2013-02-10 09:52:00,26.0,25.0,-100.00,ENE,66,7.0,11.0,95,-99.99,,,0.04,17.000000,,2013-02-10 15:52:00,
2013-02-10 10:01:00,26.0,24.0,-100.00,East,79,8.0,13.0,92,0.00,,,0.04,24.000000,,2013-02-10 16:01:00,
2013-02-10 10:32:00,26.0,24.0,-100.00,East,79,8.0,13.0,92,0.00,,,0.04,24.000000,,2013-02-10 16:32:00,
2013-02-10 10:42:00,26.0,24.0,-100.00,East,79,8.0,13.0,92,0.00,,,0.04,24.000000,,2013-02-10 16:42:00,
2013-02-10 10:52:00,26.0,24.0,-100.00,East,79,8.0,13.0,92,0.00,,,0.04,24.000000,,2013-02-10 16:52:00,
2013-02-10 11:01:00,26.0,24.0,-100.00,NE,55,6.0,16.0,93,0.04,,,-99.99,30.000000,,2013-02-10 17:01:00,
2013-02-10 11:32:00,26.0,24.0,-100.00,NE,55,6.0,16.0,93,0.04,,,-99.99,30.000000,,2013-02-10 17:32:00,
2013-02-10 11:42:00,26.0,24.0,-100.00,NE,55,6.0,16.0,93,0.04,,,-99.99,30.000000,,2013-02-10 17:42:00,
2013-02-10 11:52:00,26.0,24.0,-100.00,NE,55,6.0,16.0,93,0.04,,,-99.99,30.000000,,2013-02-10 17:52:00,
2013-02-10 12:01:00,26.0,24.0,-100.00,ENE,66,5.0,12.0,93,0.02,,,0.10,50.000000,,2013-02-10 18:01:00,
2013-02-10 12:32:00,26.0,24.0,-100.00,ENE,66,5.0,12.0,93,0.02,,,0.10,50.000000,,2013-02-10 18:32:00,
2013-02-10 12:42:00,26.0,24.0,-100.00,ENE,66,5.0,12.0,93,0.02,,,0.10,50.000000,,2013-02-10 18:42:00,
2013-02-10 12:52:00,26.0,24.0,-100.00,ENE,66,5.0,12.0,93,0.02,,,0.10,50.000000,,2013-02-10 18:52:00,
2013-02-10 13:01:00,26.0,25.0,-100.00,ENE,64,7.0,11.0,94,0.04,,,0.14,28.000000,,2013-02-10 19:01:00,
2013-02-10 13:32:00,26.0,25.0,-100.00,ENE,64,7.0,11.0,94,0.04,,,0.14,28.000000,,2013-02-10 19:32:00,
2013-02-10 13:43:00,26.0,25.0,-100.00,ENE,64,7.0,11.0,94,0.04,,,0.14,28.000000,,2013-02-10 19:43:00,
2013-02-10 13:52:00,26.0,25.0,-100.00,ENE,64,7.0,11.0,94,0.04,,,0.14,28.000000,,2013-02-10 19:52:00,
2013-02-10 14:01:00,26.0,25.0,-100.00,NNE,32,9.0,17.0,95,0.04,,,0.18,27.000000,,2013-02-10 20:01:00,
2013-02-10 14:22:00,26.0,25.0,-100.00,NNE,32,9.0,17.0,95,0.04,,,0.18,27.000000,,2013-02-10 20:22:00,
2013-02-10 14:32:00,26.0,25.0,-100.00,NNE,32,9.0,17.0,95,0.04,,,0.18,27.000000,,2013-02-10 20:32:00,
2013-02-10 14:42:00,26.0,25.0,-100.00,NNE,32,9.0,17.0,95,0.04,,,0.18,27.000000,,2013-02-10 20:42:00,
2013-02-10 14:52:00,26.0,25.0,-100.00,NNE,32,9.0,17.0,95,0.04,,,0.18,27.000000,,2013-02-10 20:52:00,
2013-02-10 15:01:00,26.0,25.0,-100.00,NE,54,8.0,19.0,95,0.05,,,0.23,16.000000,,2013-02-10 21:01:00,
2013-02-10 15:32:00,26.0,25.0,-100.00,NE,54,8.0,19.0,95,0.05,,,0.23,16.000000,,2013-02-10 21:32:00,
2013-02-10 15:42:00,26.0,25.0,-100.00,NE,54,8.0,19.0,95,0.05,,,0.23,16.000000,,2013-02-10 21:42:00,
2013-02-10 15:52:00,26.0,25.0,-100.00,NE,54,8.0,19.0,95,0.05,,,0.23,16.000000,,2013-02-10 21:52:00,
2013-02-10 16:01:00,26.0,25.0,-100.00,NE,51,7.0,15.0,96,0.08,,,0.31,13.000000,,2013-02-10 22:01:00,
2013-02-10 16:32:00,26.0,25.0,-100.00,NE,51,7.0,15.0,96,0.08,,,0.31,13.000000,,2013-02-10 22:32:00,
2013-02-10 16:42:00,26.0,25.0,-100.00,NE,51,7.0,15.0,96,0.08,,,0.31,13.000000,,2013-02-10 22:42:00,
2013-02-10 16:52:00,26.0,25.0,-100.00,NE,51,7.0,15.0,96,0.08,,,0.31,13.000000,,2013-02-10 22:52:00,
2013-02-10 17:01:00,25.0,24.0,-100.00,NE,42,7.0,14.0,96,0.06,,,0.37,4.000000,,2013-02-10 23:01:00,
2013-02-10 17:22:00,25.0,24.0,-100.00,NE,42,7.0,14.0,96,0.06,,,0.37,4.000000,,2013-02-10 23:22:00,
2013-02-10 17:32:00,25.0,24.0,-100.00,NE,42,7.0,14.0,96,0.06,,,0.37,4.000000,,2013-02-10 23:32:00,
2013-02-10 17:42:00,25.0,24.0,-100.00,NE,42,7.0,14.0,96,0.06,,,0.37,4.000000,,2013-02-10 23:42:00,
2013-02-10 17:52:00,25.0,24.0,-100.00,NE,42,7.0,14.0,96,0.06,,,0.37,4.000000,,2013-02-10 23:52:00,
2013-02-10 18:01:00,25.0,24.0,-100.00,NNE,29,8.0,14.0,96,0.08,,,0.45,0.000000,,2013-02-11 00:01:00,
2013-02-10 18:32:00,25.0,24.0,-100.00,NNE,29,8.0,14.0,96,0.08,,,0.45,0.000000,,2013-02-11 00:32:00,
2013-02-10 18:42:00,25.0,24.0,-100.00,NNE,29,8.0,14.0,96,0.08,,,0.45,0.000000,,2013-02-11 00:42:00,
2013-02-10 18:52:00,25.0,24.0,-100.00,NNE,29,8.0,14.0,96,0.08,,,0.45,0.000000,,2013-02-11 00:52:00,
2013-02-10 19:01:00,25.0,24.0,-100.00,NNE,24,9.0,16.0,96,0.07,,,0.52,0.000000,,2013-02-11 01:01:00,
2013-02-10 19:32:00,25.0,24.0,-100.00,NNE,24,9.0,16.0,96,0.07,,,0.52,0.000000,,2013-02-11 01:32:00,
2013-02-10 19:42:00,25.0,24.0,-100.00,NNE,24,9.0,16.0,96,0.07,,,0.52,0.000000,,2013-02-11 01:42:00,
2013-02-10 19:52:00,25.0,24.0,-100.00,NNE,24,9.0,16.0,96,0.07,,,0.52,0.000000,,2013-02-11 01:52:00,
2013-02-10 20:01:00,25.0,23.0,-100.00,NNE,21,9.0,18.0,93,0.03,,,0.55,0.000000,,2013-02-11 02:01:00,
2013-02-10 20:32:00,25.0,23.0,-100.00,NNE,21,9.0,18.0,93,0.03,,,0.55,0.000000,,2013-02-11 02:32:00,
2013-02-10 20:42:00,25.0,23.0,-100.00,NNE,21,9.0,18.0,93,0.03,,,0.55,0.000000,,2013-02-11 02:42:00,
2013-02-10 20:52:00,25.0,23.0,-100.00,NNE,21,9.0,18.0,93,0.03,,,0.55,0.000000,,2013-02-11 02:52:00,
2013-02-10 21:01:00,25.0,23.0,-100.00,NNE,17,9.0,16.0,93,0.01,,,0.56,0.000000,,2013-02-11 03:01:00,
2013-02-10 21:21:00,25.0,23.0,-100.00,NNE,17,9.0,16.0,93,0.01,,,0.56,0.000000,,2013-02-11 03:21:00,
2013-02-10 21:32:00,25.0,23.0,-100.00,NNE,17,9.0,16.0,93,0.01,,,0.56,0.000000,,2013-02-11 03:32:00,
2013-02-10 21:42:00,25.0,23.0,-100.00,NNE,17,9.0,16.0,93,0.01,,,0.56,0.000000,,2013-02-11 03:42:00,
2013-02-10 21:52:00,25.0,23.0,-100.00,NNE,17,9.0,16.0,93,0.01,,,0.56,0.000000,,2013-02-11 03:52:00,
2013-02-10 22:01:00,24.0,22.0,-100.00,North,11,8.0,15.0,93,0.02,,,0.58,0.000000,,2013-02-11 04:01:00,
2013-02-10 22:22:00,24.0,22.0,-100.00,North,11,8.0,15.0,93,0.02,,,0.58,0.000000,,2013-02-11 04:22:00,
2013-02-10 22:32:00,24.0,22.0,-100.00,North,11,8.0,15.0,93,0.02,,,0.58,0.000000,,2013-02-11 04:32:00,
2013-02-10 22:42:00,24.0,22.0,-100.00,North,11,8.0,15.0,93,0.02,,,0.58,0.000000,,2013-02-11 04:42:00,
2013-02-10 22:52:00,24.0,22.0,-100.00,North,11,8.0,15.0,93,0.02,,,0.58,0.000000,,2013-02-11 04:52:00,
2013-02-10 23:01:00,24.0,23.0,-100.00,North,3,7.0,15.0,94,0.02,,,0.60,0.000000,,2013-02-11 05:01:00,
2013-02-10 23:22:00,24.0,23.0,-100.00,North,3,7.0,15.0,94,0.02,,,0.60,0.000000,,2013-02-11 05:22:00,
2013-02-10 23:32:00,24.0,23.0,-100.00,North,3,7.0,15.0,94,0.02,,,0.60,0.000000,,2013-02-11 05:32:00,
2013-02-10 23:42:00,24.0,23.0,-100.00,North,3,7.0,15.0,94,0.02,,,0.60,0.000000,,2013-02-11 05:42:00,
2013-02-10 23:53:00,24.0,23.0,-100.00,North,3,7.0,15.0,94,0.02,,,0.60,0.000000,,2013-02-11 05:53:00,